Flag for U.S.A. Weather past 2 weeks in Macon, Georgia, U.S.A.

Now
77 °F

Sunny.


Feels Like: 79 °F
Forecast: 46 / 77 °F
Wind: 10 mph from West

Location: Middle Georgia Regional Airport

Current Time: Mar 31, 2015 at 5:33:06 PM

Latest Report: Mar 31, 2015 at 4:53 PM


Visibility: 10 mi

Pressure: 29.92 "Hg

Humidity: 48%

Dew point: 56 °F

Location of MaconLocation

Historic Weather in Macon — Graph

°F

Macon temperature yesterday

Maximum temperature yesterday: 74 °F (at 5:53 PM)
Minimum temperature yesterday: 44 °F (at 4:53 AM)
Average temperature yesterday: 55 °F

Past Weeks' High & Low Weather Summary

 TemperatureHumidityPressure
High84 °F (Mar 17, 3:53 PM)100% (Mar 19, 10:53 PM)30.44 "Hg (Mar 19, 10:53 PM)
Low28 °F (Mar 29, 7:53 AM)16% (Mar 16, 5:53 PM)29.69 "Hg (Mar 27, 5:53 AM)
Average59 °F74%30.06 "Hg
* Reported Mar 16 3:53 PM — Mar 31 3:53 PM, Macon, Weather by CustomWeather, © 2015

Note: Actual official high and low records may vary slightly from our data, if they occured in-between our weather recording intervals... More about our weather records

Advertising

Macon weather history for previous 24 hours

 ConditionsComfort  
Time TempWeatherWind HumidityBarometerVisibility
3:53 PM
Tue, Mar 31
77 °FPassing clouds.15 mph47%29.95 "Hg10 mi
2:53 PM80 °FScattered clouds.8 mph44%29.98 "Hg10 mi
1:53 PM78 °FScattered clouds.9 mph45%30.01 "Hg10 mi
12:53 PM77 °FPartly sunny.8 mph48%30.05 "Hg10 mi
11:53 AM73 °FSunny.3 mph48%30.08 "Hg10 mi
10:53 AM67 °FScattered clouds.3 mph59%30.09 "Hg10 mi
9:53 AM57 °FPassing clouds.No wind83%30.10 "Hg10 mi
8:53 AM48 °FSunny.No wind96%30.10 "Hg9 mi
7:53 AM43 °FFog.No wind97%30.10 "Hg6 mi
6:53 AM41 °FFog.No wind100%30.08 "Hg3 mi
5:53 AM42 °FClear.No wind96%30.07 "Hg10 mi
4:59 AM43 °FFog.No wind100%30.08 "Hg2 mi
3:53 AM43 °FFog.No wind100%30.07 "Hg1 mi
2:53 AM45 °FClear.No wind97%30.09 "Hg9 mi
1:53 AM47 °FFog.No wind100%30.10 "Hg4 mi
12:53 AM49 °FClear.No wind97%30.11 "Hg10 mi
11:53 PM
Mon, Mar 30
50 °FClear.No wind96%30.11 "Hg10 mi
10:53 PM52 °FClear.5 mph97%30.11 "Hg10 mi
9:53 PM54 °FClear.No wind90%30.10 "Hg10 mi
8:53 PM57 °FClear.No wind83%30.08 "Hg10 mi
7:53 PM68 °FSunny.No wind53%30.06 "Hg10 mi
6:53 PM73 °FSunny.7 mph44%30.07 "Hg10 mi
5:53 PM74 °FPassing clouds.13 mph48%30.07 "Hg10 mi
Weather by CustomWeather, © 2015

See weather overviewHow to use our weather pages